Location: Lafig�re
(44.4503°N, 4.0357°E)
Time: 21:35:50
(UTC+00:00)

deb Explorer IX - Visible Passes

Search period start: 21 January 2021 00:00
Search period end: 31 January 2021 00:00
Orbit: 536 x 1104 km, 38.8° (Epoch: 21 January)

Date Brightness Start Highest point End Pass type
(mag) Time Alt. Az. Time Alt. Az. Time Alt. Az.
21 Jan ? 17:35:04 10° SSW 17:39:32 21° SSE 17:43:33 10° ESE visible
21 Jan ? 19:20:33 10° WSW 19:24:49 35° SSW 19:24:49 35° SSW visible
22 Jan ? 17:11:09 10° SSW 17:15:50 22° SSE 17:20:05 10° ESE visible
22 Jan ? 18:56:42 10° WSW 19:02:17 40° S 19:02:34 40° SSE visible
22 Jan ? 20:43:36 10° WSW 20:43:50 11° WSW 20:43:50 11° WSW visible
23 Jan ? 18:32:48 10° WSW 18:38:36 41° S 18:40:17 33° SE visible
23 Jan ? 20:19:46 10° WSW 20:21:32 19° WSW 20:21:32 19° WSW visible
24 Jan ? 18:08:55 10° WSW 18:14:54 43° S 18:17:58 23° ESE visible
24 Jan ? 19:55:55 10° WSW 19:59:15 30° WSW 19:59:15 30° WSW visible
25 Jan ? 17:45:01 10° WSW 17:51:10 44° S 17:55:40 14° ESE visible
25 Jan ? 19:32:02 10° WSW 19:36:56 43° SW 19:36:56 43° SW visible
26 Jan ? 17:21:06 10° WSW 17:27:26 45° S 17:32:56 10° E visible
26 Jan ? 19:08:08 10° W 19:14:06 48° S 19:14:38 46° S visible
26 Jan ? 20:55:44 10° W 20:55:54 11° W 20:55:54 11° W visible
27 Jan ? 18:44:14 10° W 18:50:23 49° S 18:52:20 35° SE visible
27 Jan ? 20:31:52 10° W 20:33:36 17° WSW 20:33:36 17° WSW visible
28 Jan ? 18:20:19 10° W 18:26:39 49° S 18:30:05 23° ESE visible
28 Jan ? 20:07:56 10° W 20:11:21 24° SW 20:11:21 24° SW visible
29 Jan ? 17:56:24 10° W 18:02:53 50° S 18:07:52 13° ESE visible
29 Jan ? 19:44:01 10° W 19:49:08 29° SSW 19:49:08 29° SSW visible
30 Jan ? 17:32:27 10° W 17:39:06 51° S 17:44:54 10° ESE visible
30 Jan ? 19:20:06 10° W 19:25:34 30° SSW 19:26:59 27° S visible
